This is the latest recevied weather packets stored in our database for station/object K0QED. If no packets are shown the sender has not sent any weather packets the latest 10 day(s).
| Time | Temp. | Humidity | Pressure | Rain* | Wind** | Luminosity | Snow |
|---|---|---|---|---|---|---|---|
| 1777806878 | 7.22° C | 42% | 1021.4 hPa | 0 mm | - | 0 W/m² | - |
| 1777806574 | 7.22° C | 43% | 1021.2 hPa | 0 mm | - | 0 W/m² | - |
| 1777806270 | 7.22° C | 42% | 1021.4 hPa | 0 mm | - | 0 W/m² | - |
| 1777805967 | 7.22° C | 43% | 1021.1 hPa | 0 mm | - | 0 W/m² | - |
| 1777805664 | 7.22° C | 42% | 1021.5 hPa | 0 mm | - | 0 W/m² | - |
| 1777805361 | 7.22° C | 43% | 1021.4 hPa | 0 mm | - | 0 W/m² | - |
| 1777805060 | 7.22° C | 42% | 1021.4 hPa | 0 mm | - | 0 W/m² | - |
| 1777804756 | 7.22° C | 42% | 1021.2 hPa | 0 mm | - | 0 W/m² | - |
| 1777804454 | 7.22° C | 41% | 1021.5 hPa | 0 mm | - | 0 W/m² | - |
| 1777804151 | 7.22° C | 41% | 1021.4 hPa | 0 mm | - | 0 W/m² | - |
| 1777803849 | 7.22° C | 41% | 1021.4 hPa | 0 mm | - | 0 W/m² | - |
| 1777803544 | 7.22° C | 40% | 1021.4 hPa | 0 mm | - | 0 W/m² | - |
| 1777803242 | 7.22° C | 40% | 1021.4 hPa | 0 mm | - | 0 W/m² | - |
| 1777802938 | 7.22° C | 40% | 1021.5 hPa | 0 mm | - | 0 W/m² | - |
| 1777802636 | 7.22° C | 40% | 1021.5 hPa | 0 mm | - | 0 W/m² | - |
| 1777802334 | 7.78° C | 40% | 1021.4 hPa | 0 mm | - | 0 W/m² | - |
| 1777802032 | 7.78° C | 39% | 1021.2 hPa | 0 mm | - | 0 W/m² | - |
| 1777801729 | 7.78° C | 39% | 1021.4 hPa | 0 mm | - | 0 W/m² | - |
| 1777801426 | 7.78° C | 38% | 1021.5 hPa | 0 mm | - | 0 W/m² | - |
| 1777801123 | 7.78° C | 38% | 1021.2 hPa | 0 mm | - | 0 W/m² | - |
| 1777800820 | 7.78° C | 39% | 1021.4 hPa | 0 mm | - | 0 W/m² | - |
| 1777800520 | 7.22° C | 40% | 1021.4 hPa | 0 mm | - | 0 W/m² | - |
| 1777800217 | 6.67° C | 43% | 1021.4 hPa | 0 mm | - | 0 W/m² | - |
| 1777799912 | 5.56° C | 46% | 1021.5 hPa | 0 mm | - | 0 W/m² | - |
| 1777799609 | 6.11° C | 45% | 1021.6 hPa | 0 mm | - | 0 W/m² | - |
* Rain latest hour (hover to see other rain measurements)
** Current wind speed in m/s (hover to see current wind gust speed)